When you browse on this site, cookies collect data to enhance your experience and personalize the content and advertising you see.
Visit our Privacy Policy to learn more. By continuing to use the site, you agree to this use of cookies and data.
  • en France
  • Liste des pays
  • À 7 jours
  • Température de l'eau
  • Carte météo
  • Widgets météo
  • user-avatar
    Se connecter

    Météo par heure à Benguela

    Ce jour, 24 Février, Lundi

    Heure Température Précipitation Vent Pression Humidité
    00:00 +29°C° 0 mm 1 m/s 758 mmHg 82%
    01:00 +28°C° 0 mm 1 m/s 758 mmHg 82%
    02:00 +28°C° 0 mm 1 m/s 758 mmHg 83%
    03:00 +28°C° 0 mm 1 m/s 757 mmHg 83%
    04:00 +28°C° 0 mm 1 m/s 757 mmHg 83%
    05:00 +28°C° 0 mm 1 m/s 757 mmHg 82%
    06:00 +28°C° 0 mm 1 m/s 758 mmHg 81%
    07:00 +28°C° 0 mm 1 m/s 758 mmHg 80%
    08:00 +30°C° 0 mm 1 m/s 759 mmHg 73%
    09:00 +32°C° 0 mm 2 m/s 759 mmHg 66%
    10:00 +34°C° 0 mm 2 m/s 759 mmHg 58%
    11:00 +35°C° 0 mm 3 m/s 759 mmHg 56%
    12:00 +36°C° 0 mm 3 m/s 758 mmHg 53%
    13:00 +36°C° 0 mm 4 m/s 758 mmHg 51%
    14:00 +36°C° 0 mm 4 m/s 757 mmHg 53%
    15:00 +35°C° 0 mm 4 m/s 757 mmHg 55%
    16:00 +34°C° 0 mm 4 m/s 756 mmHg 57%
    17:00 +33°C° 0 mm 3 m/s 757 mmHg 62%
    18:00 +31°C° 0 mm 3 m/s 757 mmHg 68%
    19:00 +30°C° 0 mm 2 m/s 758 mmHg 73%
    20:00 +30°C° 0 mm 2 m/s 758 mmHg 76%
    21:00 +29°C° 0 mm 2 m/s 759 mmHg 78%
    22:00 +29°C° 0 mm 1 m/s 759 mmHg 80%
    23:00 +28°C° 0 mm 1 m/s 759 mmHg 81%

    Demain, 25 Février, Mardi

    Heure Température Précipitation Vent Pression Humidité
    00:00 +28°C° 0 mm 1 m/s 758 mmHg 81%
    01:00 +28°C° 0 mm 1 m/s 758 mmHg 81%
    02:00 +28°C° 0 mm 1 m/s 757 mmHg 81%
    03:00 +28°C° 0 mm 1 m/s 757 mmHg 81%
    04:00 +28°C° 0 mm 1 m/s 756 mmHg 81%
    05:00 +28°C° 0 mm 1 m/s 757 mmHg 80%
    06:00 +28°C° 0 mm 2 m/s 757 mmHg 79%
    07:00 +28°C° 0 mm 2 m/s 757 mmHg 79%
    08:00 +30°C° 0 mm 2 m/s 757 mmHg 71%
    09:00 +32°C° 0 mm 2 m/s 757 mmHg 63%
    10:00 +34°C° 0 mm 2 m/s 757 mmHg 56%
    11:00 +35°C° 0 mm 3 m/s 757 mmHg 55%
    12:00 +36°C° 0 mm 4 m/s 756 mmHg 54%
    13:00 +36°C° 0 mm 4 m/s 756 mmHg 53%
    14:00 +36°C° 0 mm 5 m/s 755 mmHg 54%
    15:00 +35°C° 0 mm 5 m/s 755 mmHg 55%
    16:00 +35°C° 0 mm 5 m/s 754 mmHg 57%
    17:00 +33°C° 0 mm 5 m/s 755 mmHg 63%
    18:00 +32°C° 0 mm 4 m/s 755 mmHg 69%
    19:00 +29°C° 0 mm 4 m/s 756 mmHg 76%
    20:00 +29°C° 0 mm 3 m/s 757 mmHg 77%
    21:00 +28°C° 0 mm 3 m/s 757 mmHg 79%
    22:00 +28°C° 0 mm 3 m/s 757 mmHg 80%
    23:00 +28°C° 0 mm 2 m/s 757 mmHg 82%

    Après-demain, 26 Février, Mercredi

    Heure Température Précipitation Vent Pression Humidité
    00:00 +27°C° 0 mm 2 m/s 757 mmHg 83%
    01:00 +27°C° 0 mm 2 m/s 757 mmHg 85%
    02:00 +27°C° 0 mm 2 m/s 757 mmHg 86%
    03:00 +27°C° 0 mm 2 m/s 756 mmHg 87%
    04:00 +26°C° 0 mm 2 m/s 756 mmHg 88%
    05:00 +27°C° 0 mm 1 m/s 756 mmHg 87%
    06:00 +27°C° 0 mm 1 m/s 757 mmHg 86%
    07:00 +27°C° 0 mm 1 m/s 757 mmHg 85%
    08:00 +28°C° 0 mm 1 m/s 757 mmHg 78%
    09:00 +29°C° 0 mm 2 m/s 757 mmHg 72%
    10:00 +30°C° 0 mm 2 m/s 757 mmHg 66%
    11:00 +31°C° 0 mm 3 m/s 757 mmHg 62%
    12:00 +33°C° 0 mm 3 m/s 757 mmHg 59%
    13:00 +34°C° 0 mm 4 m/s 756 mmHg 56%
    14:00 +34°C° 0 mm 4 m/s 756 mmHg 57%
    15:00 +33°C° 0 mm 4 m/s 755 mmHg 58%
    16:00 +33°C° 0 mm 4 m/s 755 mmHg 59%
    17:00 +32°C° 0 mm 4 m/s 755 mmHg 64%
    18:00 +29°C° 0 mm 3 m/s 756 mmHg 69%
    19:00 +28°C° 0 mm 3 m/s 756 mmHg 74%
    20:00 +28°C° 0 mm 3 m/s 757 mmHg 76%
    21:00 +27°C° 0 mm 2 m/s 757 mmHg 78%
    22:00 +27°C° 0 mm 2 m/s 758 mmHg 80%
    23:00 +27°C° 0 mm 2 m/s 758 mmHg 81%

    27 Février, Jeudi

    Heure Température Précipitation Vent Pression Humidité
    00:00 +26°C° 0 mm 2 m/s 757 mmHg 82%
    01:00 +26°C° 0 mm 2 m/s 757 mmHg 83%
    02:00 +26°C° 0 mm 2 m/s 757 mmHg 84%
    03:00 +26°C° 0 mm 2 m/s 757 mmHg 85%
    04:00 +25°C° 0 mm 2 m/s 757 mmHg 85%
    05:00 +26°C° 0 mm 1 m/s 757 mmHg 85%
    06:00 +26°C° 0 mm 1 m/s 757 mmHg 84%
    07:00 +26°C° 0 mm 1 m/s 758 mmHg 83%
    08:00 +28°C° 0 mm 1 m/s 758 mmHg 76%
    09:00 +29°C° 0 mm 2 m/s 758 mmHg 69%
    10:00 +31°C° 0 mm 2 m/s 758 mmHg 63%
    11:00 +31°C° 0 mm 3 m/s 758 mmHg 61%
    12:00 +33°C° 0 mm 4 m/s 757 mmHg 60%
    13:00 +33°C° 0 mm 4 m/s 757 mmHg 59%
    14:00 +33°C° 0 mm 4 m/s 756 mmHg 60%
    15:00 +32°C° 0 mm 4 m/s 756 mmHg 61%
    16:00 +32°C° 0 mm 4 m/s 755 mmHg 62%
    17:00 +30°C° 0 mm 3 m/s 756 mmHg 66%
    18:00 +29°C° 0 mm 3 m/s 757 mmHg 69%
    19:00 +28°C° 0 mm 2 m/s 757 mmHg 73%
    20:00 +27°C° 0 mm 2 m/s 758 mmHg 75%
    21:00 +27°C° 0 mm 2 m/s 758 mmHg 76%
    22:00 +27°C° 0 mm 2 m/s 759 mmHg 78%
    23:00 +26°C° 0 mm 2 m/s 758 mmHg 79%

    28 Février, Vendredi

    Heure Température Précipitation Vent Pression Humidité
    00:00 +26°C° 0 mm 2 m/s 758 mmHg 81%
    01:00 +26°C° 0 mm 2 m/s 758 mmHg 82%
    02:00 +26°C° 0 mm 2 m/s 758 mmHg 83%
    03:00 +25°C° 0 mm 1 m/s 758 mmHg 84%
    04:00 +25°C° 0 mm 1 m/s 757 mmHg 84%
    05:00 +25°C° 0 mm 1 m/s 758 mmHg 83%
    06:00 +26°C° 0 mm 1 m/s 758 mmHg 81%
    07:00 +24°C° 0 mm 0 m/s 758 mmHg 80%
    08:00 +28°C° 0 mm 1 m/s 759 mmHg 74%
    09:00 +29°C° 0 mm 1 m/s 759 mmHg 68%
    10:00 +31°C° 0 mm 2 m/s 759 mmHg 62%
    11:00 +32°C° 0 mm 2 m/s 758 mmHg 59%
    12:00 +34°C° 0 mm 3 m/s 758 mmHg 55%
    13:00 +34°C° 0 mm 3 m/s 757 mmHg 52%
    14:00 +34°C° 0 mm 4 m/s 757 mmHg 55%
    15:00 +33°C° 0 mm 4 m/s 756 mmHg 57%
    16:00 +33°C° 0 mm 4 m/s 756 mmHg 60%
    17:00 +31°C° 0 mm 3 m/s 756 mmHg 64%
    18:00 +30°C° 0 mm 3 m/s 757 mmHg 69%
    19:00 +28°C° 0 mm 3 m/s 757 mmHg 73%
    20:00 +28°C° 0 mm 3 m/s 757 mmHg 76%
    21:00 +28°C° 0 mm 2 m/s 758 mmHg 78%
    22:00 +27°C° 0 mm 2 m/s 758 mmHg 80%
    23:00 +27°C° 0 mm 2 m/s 758 mmHg 80%

    29 Février, Samedi

    Heure Température Précipitation Vent Pression Humidité
    00:00 +27°C° 0 mm 3 m/s 757 mmHg 81%
    01:00 +27°C° 0 mm 3 m/s 757 mmHg 81%
    02:00 +27°C° 0 mm 2 m/s 757 mmHg 81%
    03:00 +27°C° 0 mm 2 m/s 757 mmHg 81%
    04:00 +27°C° 0 mm 1 m/s 757 mmHg 81%
    05:00 +27°C° 0 mm 1 m/s 757 mmHg 80%
    06:00 +27°C° 0 mm 1 m/s 757 mmHg 78%
    07:00 +28°C° 0 mm 1 m/s 758 mmHg 77%
    08:00 +29°C° 0 mm 1 m/s 758 mmHg 71%
    09:00 +31°C° 0 mm 2 m/s 758 mmHg 64%
    10:00 +34°C° 0 mm 2 m/s 759 mmHg 58%
    11:00 +34°C° 0 mm 3 m/s 758 mmHg 57%
    12:00 +35°C° 0 mm 3 m/s 758 mmHg 57%
    13:00 +35°C° 0 mm 4 m/s 757 mmHg 56%
    14:00 +35°C° 0 mm 4 m/s 757 mmHg 57%
    15:00 +35°C° 0 mm 3 m/s 756 mmHg 59%
    16:00 +34°C° 0 mm 3 m/s 756 mmHg 60%
    17:00 +33°C° 0 mm 3 m/s 756 mmHg 64%
    18:00 +31°C° 0 mm 3 m/s 757 mmHg 68%
    19:00 +30°C° 0 mm 3 m/s 757 mmHg 72%
    20:00 +29°C° 0 mm 3 m/s 758 mmHg 73%
    21:00 +29°C° 0 mm 3 m/s 758 mmHg 74%
    22:00 +29°C° 0 mm 2 m/s 759 mmHg 76%
    23:00 +29°C° 0 mm 2 m/s 758 mmHg 77%
    Voir plus